| time (UTC) | temp F | wind direction | speed MPH | gust MPH | rain 1hr in | rain 24hr in | rain mn in | humidity % | barometer mb |
| 20260508203018 | 74 | 135 | 0.0 | 0.0 | 0.00 | 0.00 | 0.00 | 25 | 1014.2 |
| 20260508202018 | 75 | 135 | 0.0 | 0.0 | 0.00 | 0.00 | 0.00 | 25 | 1014.2 |
| 20260508201518 | 74 | 135 | 0.0 | 0.0 | 0.00 | 0.00 | 0.00 | 25 | 1014.1 |
| 20260508201018 | 74 | 135 | 0.0 | 0.0 | 0.00 | 0.00 | 0.00 | 25 | 1014.1 |
| 20260508200517 | 74 | 135 | 0.0 | 0.0 | 0.00 | 0.00 | 0.00 | 25 | 1014.1 |
| 20260508200017 | 74 | 135 | 0.0 | 0.0 | 0.00 | 0.00 | 0.00 | 30 | 1014.1 |
| 20260508195517 | 74 | 135 | 0.0 | 0.0 | 0.00 | 0.00 | 0.00 | 30 | 1014.4 |
| 20260508195017 | 74 | 135 | 0.0 | 0.0 | 0.00 | 0.00 | 0.00 | 30 | 1014.4 |
| 20260508194518 | 74 | 135 | 0.0 | 0.0 | 0.00 | 0.00 | 0.00 | 30 | 1014.4 |
| 20260508194018 | 74 | 135 | 0.0 | 0.0 | 0.00 | 0.00 | 0.00 | 30 | 1014.4 |
| 20260508193518 | 73 | 135 | 0.0 | 0.0 | 0.00 | 0.00 | 0.00 | 30 | 1014.2 |
| 20260508193018 | 73 | 135 | 0.0 | 0.0 | 0.00 | 0.00 | 0.00 | 30 | 1014.2 |
| 20260508192518 | 73 | 135 | 0.0 | 0.0 | 0.00 | 0.00 | 0.00 | 30 | 1014.2 |
| 20260508192018 | 73 | 135 | 0.0 | 0.0 | 0.00 | 0.00 | 0.00 | 30 | 1014.2 |
| 20260508191517 | 73 | 135 | 0.0 | 0.0 | 0.00 | 0.00 | 0.00 | 30 | 1014.1 |
| 20260508191018 | 72 | 135 | 0.0 | 0.0 | 0.00 | 0.00 | 0.00 | 30 | 1014.1 |
| 20260508190518 | 72 | 135 | 0.0 | 0.0 | 0.00 | 0.00 | 0.00 | 30 | 1014.1 |
| 20260508190018 | 72 | 135 | 0.0 | 0.0 | 0.00 | 0.00 | 0.00 | 28 | 1014.1 |
| 20260508185518 | 71 | 135 | 0.0 | 0.0 | 0.00 | 0.00 | 0.00 | 28 | 1014.4 |
| 20260508185018 | 72 | 135 | 0.0 | 0.0 | 0.00 | 0.00 | 0.00 | 28 | 1014.4 |
| 20260508184517 | 71 | 135 | 0.0 | 0.0 | 0.00 | 0.00 | 0.00 | 28 | 1014.4 |
| 20260508184017 | 71 | 135 | 0.0 | 0.0 | 0.00 | 0.00 | 0.00 | 28 | 1014.4 |
| 20260508183518 | 71 | 135 | 0.0 | 0.0 | 0.00 | 0.00 | 0.00 | 28 | 1014.1 |
| 20260508183018 | 70 | 135 | 0.0 | 0.0 | 0.00 | 0.00 | 0.00 | 28 | 1014.1 |
| 20260508182517 | 70 | 135 | 0.0 | 0.0 | 0.00 | 0.00 | 0.00 | 28 | 1014.1 |
| 20260508181517 | 71 | 135 | 0.0 | 0.0 | 0.00 | 0.00 | 0.00 | 28 | 1014.1 |
| 20260508181018 | 71 | 135 | 0.0 | 0.0 | 0.00 | 0.00 | 0.00 | 28 | 1014.1 |
| 20260508180018 | 71 | 135 | 0.0 | 0.0 | 0.00 | 0.00 | 0.00 | 40 | 1014.1 |
| 20260508175518 | 71 | 135 | 0.0 | 0.0 | 0.00 | 0.00 | 0.00 | 40 | 1013.9 |
| 20260508174517 | 70 | 135 | 0.0 | 0.0 | 0.00 | 0.00 | 0.00 | 40 | 1013.9 |
| 20260508174017 | 70 | 135 | 0.0 | 0.0 | 0.00 | 0.00 | 0.00 | 40 | 1013.9 |
| 20260508173518 | 70 | 135 | 0.0 | 0.0 | 0.00 | 0.00 | 0.00 | 40 | 1013.9 |
| 20260508173018 | 70 | 135 | 0.0 | 0.0 | 0.00 | 0.00 | 0.00 | 40 | 1013.9 |
| 20260508172517 | 70 | 135 | 0.0 | 0.0 | 0.00 | 0.00 | 0.00 | 40 | 1013.9 |
| 20260508172017 | 70 | 135 | 0.0 | 0.0 | 0.00 | 0.00 | 0.00 | 40 | 1013.9 |
| 20260508171517 | 70 | 135 | 0.0 | 0.0 | 0.00 | 0.00 | 0.00 | 40 | 1013.8 |
| 20260508171017 | 70 | 135 | 0.0 | 0.0 | 0.00 | 0.00 | 0.00 | 40 | 1013.8 |
| 20260508170518 | 70 | 135 | 0.0 | 0.0 | 0.00 | 0.00 | 0.00 | 40 | 1013.8 |
| 20260508170018 | 69 | 135 | 0.0 | 0.0 | 0.00 | 0.00 | 0.00 | 43 | 1013.8 |
| 20260508165518 | 69 | 135 | 0.0 | 0.0 | 0.00 | 0.00 | 0.00 | 43 | 1013.5 |
| 20260508164517 | 69 | 135 | 0.0 | 0.0 | 0.00 | 0.00 | 0.00 | 43 | 1013.5 |
| 20260508164017 | 69 | 135 | 0.0 | 0.0 | 0.00 | 0.00 | 0.00 | 43 | 1013.5 |
| 20260508162517 | 68 | 135 | 0.0 | 0.0 | 0.00 | 0.00 | 0.00 | 43 | 1013.4 |
| 20260508162018 | 68 | 135 | 0.0 | 0.0 | 0.00 | 0.00 | 0.00 | 43 | 1013.4 |
| 20260508161517 | 67 | 135 | 0.0 | 0.0 | 0.00 | 0.00 | 0.00 | 43 | 1013.3 |
| 20260508161017 | 67 | 135 | 0.0 | 0.0 | 0.00 | 0.00 | 0.00 | 43 | 1013.3 |
| 20260508160517 | 67 | 135 | 0.0 | 0.0 | 0.00 | 0.00 | 0.00 | 43 | 1013.3 |
| 20260508155517 | 67 | 135 | 0.0 | 0.0 | 0.00 | 0.00 | 0.00 | 44 | 1013.1 |
| 20260508155017 | 67 | 135 | 0.0 | 0.0 | 0.00 | 0.00 | 0.00 | 44 | 1013.1 |
| 20260508154017 | 67 | 135 | 0.0 | 0.0 | 0.00 | 0.00 | 0.00 | 44 | 1013.1 |
| 20260508153517 | 66 | 135 | 0.0 | 0.0 | 0.00 | 0.00 | 0.00 | 44 | 1012.9 |
| 20260508153017 | 66 | 135 | 0.0 | 0.0 | 0.00 | 0.00 | 0.00 | 44 | 1012.9 |
| 20260508152517 | 65 | 135 | 0.0 | 0.0 | 0.00 | 0.00 | 0.00 | 44 | 1012.9 |
| 20260508152018 | 65 | 135 | 0.0 | 0.0 | 0.00 | 0.00 | 0.00 | 44 | 1012.9 |
| 20260508151517 | 65 | 135 | 0.0 | 0.0 | 0.00 | 0.00 | 0.00 | 44 | 1012.5 |
| 20260508150517 | 64 | 135 | 0.0 | 0.0 | 0.00 | 0.00 | 0.00 | 44 | 1012.5 |
| 20260508150017 | 64 | 135 | 0.0 | 0.0 | 0.00 | 0.00 | 0.00 | 44 | 1012.5 |
| 20260508145517 | 63 | 135 | 0.0 | 0.0 | 0.00 | 0.00 | 0.00 | 44 | 1012.2 |
| 20260508145017 | 62 | 135 | 0.0 | 0.0 | 0.00 | 0.00 | 0.00 | 44 | 1012.2 |
| 20260508144517 | 62 | 135 | 0.0 | 0.0 | 0.00 | 0.00 | 0.00 | 44 | 1012.2 |
| 20260508144017 | 62 | 135 | 0.0 | 0.0 | 0.00 | 0.00 | 0.00 | 44 | 1012.2 |
| 20260508143517 | 62 | 135 | 0.0 | 0.0 | 0.00 | 0.00 | 0.00 | 44 | 1011.9 |
| 20260508142517 | 63 | 135 | 0.0 | 0.0 | 0.00 | 0.00 | 0.00 | 44 | 1011.9 |
| 20260508142017 | 62 | 135 | 0.0 | 0.0 | 0.00 | 0.00 | 0.00 | 44 | 1011.9 |
| 20260508141517 | 62 | 135 | 0.0 | 0.0 | 0.00 | 0.00 | 0.00 | 44 | 1011.9 |
| 20260508141017 | 60 | 135 | 0.0 | 0.0 | 0.00 | 0.00 | 0.00 | 44 | 1011.9 |
| 20260508140516 | 59 | 135 | 0.0 | 0.0 | 0.00 | 0.00 | 0.00 | 44 | 1011.9 |
| 20260508140017 | 58 | 135 | 0.0 | 0.0 | 0.00 | 0.00 | 0.00 | 45 | 1011.9 |
| 20260508135517 | 56 | 135 | 0.0 | 0.0 | 0.00 | 0.00 | 0.00 | 45 | 1011.9 |
| 20260508135017 | 55 | 135 | 0.0 | 0.0 | 0.00 | 0.00 | 0.00 | 45 | 1011.9 |
| 20260508134017 | 54 | 135 | 0.0 | 0.0 | 0.00 | 0.00 | 0.00 | 45 | 1011.9 |
| 20260508133517 | 53 | 135 | 0.0 | 0.0 | 0.00 | 0.00 | 0.00 | 45 | 1011.6 |
| 20260508132517 | 50 | 135 | 0.0 | 0.0 | 0.00 | 0.00 | 0.00 | 45 | 1011.6 |
| 20260508131517 | 51 | 135 | 0.0 | 0.0 | 0.00 | 0.00 | 0.00 | 45 | 1011.4 |
| 20260508131017 | 51 | 135 | 0.0 | 0.0 | 0.00 | 0.00 | 0.00 | 45 | 1011.4 |
| 20260508130516 | 51 | 135 | 0.0 | 0.0 | 0.00 | 0.00 | 0.00 | 45 | 1011.4 |
| 20260508130017 | 50 | 135 | 0.0 | 0.0 | 0.00 | 0.00 | 0.00 | 47 | 1011.4 |
| 20260508125517 | 50 | 135 | 0.0 | 0.0 | 0.00 | 0.00 | 0.00 | 47 | 1011.2 |
| 20260508125017 | 50 | 135 | 0.0 | 0.0 | 0.00 | 0.00 | 0.00 | 47 | 1011.2 |
| 20260508124517 | 50 | 135 | 0.0 | 0.0 | 0.00 | 0.00 | 0.00 | 47 | 1011.2 |
| 20260508124017 | 50 | 135 | 0.0 | 0.0 | 0.00 | 0.00 | 0.00 | 47 | 1011.2 |
| 20260508123516 | 50 | 135 | 0.0 | 0.0 | 0.00 | 0.00 | 0.00 | 47 | 1011.1 |
| 20260508123017 | 50 | 135 | 0.0 | 0.0 | 0.00 | 0.00 | 0.00 | 47 | 1011.1 |
| 20260508122516 | 50 | 135 | 0.0 | 0.0 | 0.00 | 0.00 | 0.00 | 47 | 1011.1 |
| 20260508122017 | 50 | 135 | 0.0 | 0.0 | 0.00 | 0.00 | 0.00 | 47 | 1011.1 |
| 20260508121517 | 50 | 135 | 0.0 | 0.0 | 0.00 | 0.00 | 0.00 | 47 | 1010.8 |
| 20260508121018 | 50 | 135 | 0.0 | 0.0 | 0.00 | 0.00 | 0.00 | 47 | 1010.8 |
| 20260508120017 | 50 | 135 | 0.0 | 0.0 | 0.00 | 0.00 | 0.00 | 43 | 1010.8 |
| 20260508115517 | 51 | 135 | 0.0 | 0.0 | 0.00 | 0.00 | 0.00 | 43 | 1010.9 |
| 20260508115016 | 51 | 135 | 0.0 | 0.0 | 0.00 | 0.00 | 0.00 | 43 | 1010.9 |
| 20260508114517 | 52 | 135 | 0.0 | 0.0 | 0.00 | 0.00 | 0.00 | 43 | 1010.9 |
| 20260508114017 | 52 | 135 | 0.0 | 0.0 | 0.00 | 0.00 | 0.00 | 43 | 1010.9 |
| 20260508113517 | 52 | 135 | 0.0 | 0.0 | 0.00 | 0.00 | 0.00 | 43 | 1010.8 |
| 20260508113017 | 53 | 135 | 0.0 | 0.0 | 0.00 | 0.00 | 0.00 | 43 | 1010.8 |
| 20260508112017 | 53 | 135 | 0.0 | 0.0 | 0.00 | 0.00 | 0.00 | 43 | 1010.8 |
| 20260508110517 | 52 | 135 | 0.0 | 0.0 | 0.00 | 0.00 | 0.00 | 43 | 1010.9 |
| 20260508110016 | 52 | 135 | 0.0 | 0.0 | 0.00 | 0.00 | 0.00 | 41 | 1010.9 |
| 20260508105516 | 52 | 135 | 0.0 | 0.0 | 0.00 | 0.00 | 0.00 | 41 | 1010.9 |
| 20260508104516 | 52 | 135 | 0.0 | 0.0 | 0.00 | 0.00 | 0.00 | 41 | 1010.9 |
| 20260508104017 | 52 | 135 | 0.0 | 0.0 | 0.00 | 0.00 | 0.00 | 41 | 1010.9 |
| 20260508103517 | 53 | 135 | 0.0 | 0.0 | 0.00 | 0.00 | 0.00 | 41 | 1011.0 |
| 20260508103017 | 52 | 135 | 0.0 | 0.0 | 0.00 | 0.00 | 0.00 | 41 | 1011.0 |
| 20260508102516 | 52 | 135 | 0.0 | 0.0 | 0.00 | 0.00 | 0.00 | 41 | 1011.0 |
| 20260508101517 | 52 | 135 | 0.0 | 0.0 | 0.00 | 0.00 | 0.00 | 41 | 1011.1 |
| 20260508101017 | 52 | 135 | 0.0 | 0.0 | 0.00 | 0.00 | 0.00 | 41 | 1011.1 |
| 20260508100517 | 52 | 135 | 0.0 | 0.0 | 0.00 | 0.00 | 0.00 | 41 | 1011.1 |
| 20260508100017 | 52 | 135 | 0.0 | 0.0 | 0.00 | 0.00 | 0.00 | 41 | 1011.1 |
| 20260508095517 | 52 | 135 | 0.0 | 0.0 | 0.00 | 0.00 | 0.00 | 41 | 1011.1 |
| 20260508095016 | 52 | 135 | 0.0 | 0.0 | 0.00 | 0.00 | 0.00 | 41 | 1011.1 |
| 20260508094017 | 52 | 135 | 0.0 | 0.0 | 0.00 | 0.00 | 0.00 | 41 | 1011.1 |
| 20260508093517 | 52 | 135 | 0.0 | 0.0 | 0.00 | 0.00 | 0.00 | 41 | 1011.1 |
| 20260508093017 | 52 | 135 | 0.0 | 0.0 | 0.00 | 0.00 | 0.00 | 41 | 1011.1 |
| 20260508092516 | 52 | 135 | 0.0 | 0.0 | 0.00 | 0.00 | 0.00 | 41 | 1011.1 |
| 20260508091517 | 52 | 135 | 0.0 | 0.0 | 0.00 | 0.00 | 0.00 | 41 | 1011.1 |
| 20260508091017 | 52 | 135 | 0.0 | 0.0 | 0.00 | 0.00 | 0.00 | 41 | 1011.1 |
| 20260508090016 | 52 | 135 | 0.0 | 0.0 | 0.00 | 0.00 | 0.00 | 41 | 1011.1 |
| 20260508085516 | 53 | 135 | 0.0 | 0.0 | 0.00 | 0.00 | 0.00 | 41 | 1011.1 |
| 20260508085016 | 53 | 135 | 0.0 | 0.0 | 0.00 | 0.00 | 0.00 | 41 | 1011.1 |
| 20260508084517 | 53 | 135 | 0.0 | 0.0 | 0.00 | 0.00 | 0.00 | 41 | 1011.1 |
| 20260508083517 | 54 | 135 | 0.0 | 0.0 | 0.00 | 0.00 | 0.00 | 41 | 1011.1 |
| 20260508082017 | 56 | 135 | 0.0 | 0.0 | 0.00 | 0.00 | 0.00 | 41 | 1011.1 |
| 20260508081017 | 55 | 135 | 0.0 | 0.0 | 0.00 | 0.00 | 0.00 | 41 | 1011.3 |
| 20260508080016 | 54 | 135 | 0.0 | 0.0 | 0.00 | 0.00 | 0.00 | 40 | 1011.3 |
| 20260508075516 | 54 | 135 | 0.0 | 0.0 | 0.00 | 0.00 | 0.00 | 40 | 1011.4 |
| 20260508075016 | 55 | 135 | 0.0 | 0.0 | 0.00 | 0.00 | 0.00 | 40 | 1011.4 |
| 20260508074517 | 55 | 135 | 0.0 | 0.0 | 0.00 | 0.00 | 0.00 | 40 | 1011.4 |
| 20260508074017 | 55 | 135 | 0.0 | 0.0 | 0.00 | 0.00 | 0.00 | 40 | 1011.4 |
| 20260508073517 | 56 | 135 | 0.0 | 0.0 | 0.00 | 0.00 | 0.00 | 40 | 1011.4 |
| 20260508073017 | 56 | 135 | 0.0 | 0.0 | 0.00 | 0.00 | 0.00 | 40 | 1011.4 |
| 20260508072516 | 56 | 135 | 0.0 | 0.0 | 0.00 | 0.00 | 0.00 | 40 | 1011.4 |
| 20260508072016 | 56 | 135 | 0.0 | 0.0 | 0.00 | 0.00 | 0.00 | 40 | 1011.4 |
| 20260508071517 | 56 | 135 | 0.0 | 0.0 | 0.00 | 0.00 | 0.00 | 40 | 1011.3 |
| 20260508071017 | 56 | 135 | 0.0 | 0.0 | 0.00 | 0.00 | 0.00 | 40 | 1011.3 |
| 20260508070516 | 56 | 135 | 0.0 | 0.0 | 0.00 | 0.00 | 0.00 | 40 | 1011.3 |
| 20260508070016 | 57 | 135 | 0.0 | 0.0 | 0.00 | 0.00 | 0.00 | 36 | 1011.3 |
| 20260508065516 | 57 | 135 | 0.0 | 0.0 | 0.00 | 0.00 | 0.00 | 36 | 1011.2 |
| 20260508063516 | 57 | 135 | 0.0 | 0.0 | 0.00 | 0.00 | 0.00 | 36 | 1011.1 |
| 20260508063017 | 57 | 135 | 0.0 | 0.0 | 0.00 | 0.00 | 0.00 | 36 | 1011.1 |
| 20260508062516 | 57 | 135 | 0.0 | 0.0 | 0.00 | 0.00 | 0.00 | 36 | 1011.1 |
| 20260508062016 | 57 | 135 | 0.0 | 0.0 | 0.00 | 0.00 | 0.00 | 36 | 1011.1 |
| 20260508061517 | 58 | 135 | 0.0 | 0.0 | 0.00 | 0.00 | 0.00 | 36 | 1011.3 |
| 20260508061017 | 58 | 135 | 0.0 | 0.0 | 0.00 | 0.00 | 0.00 | 36 | 1011.3 |
| 20260508060516 | 58 | 135 | 0.0 | 0.0 | 0.00 | 0.00 | 0.00 | 36 | 1011.3 |
| 20260508060016 | 58 | 135 | 0.0 | 0.0 | 0.00 | 0.00 | 0.00 | 36 | 1011.3 |
| 20260508055516 | 59 | 135 | 0.0 | 0.0 | 0.00 | 0.00 | 0.00 | 36 | 1011.1 |
| 20260508055016 | 59 | 135 | 0.0 | 0.0 | 0.00 | 0.00 | 0.00 | 36 | 1011.1 |
| 20260508054516 | 59 | 135 | 0.0 | 0.0 | 0.00 | 0.00 | 0.00 | 36 | 1011.1 |
| 20260508054017 | 60 | 135 | 0.0 | 0.0 | 0.00 | 0.00 | 0.00 | 36 | 1011.1 |
| 20260508053517 | 60 | 135 | 0.0 | 0.0 | 0.00 | 0.00 | 0.00 | 36 | 1010.9 |
| 20260508053016 | 61 | 135 | 0.0 | 0.0 | 0.00 | 0.00 | 0.00 | 36 | 1010.9 |
| 20260508052516 | 62 | 135 | 0.0 | 0.0 | 0.00 | 0.00 | 0.00 | 36 | 1010.9 |
| 20260508052017 | 62 | 135 | 0.0 | 0.0 | 0.00 | 0.00 | 0.00 | 36 | 1010.9 |
| 20260508051016 | 63 | 135 | 0.0 | 0.0 | 0.00 | 0.00 | 0.00 | 36 | 1010.9 |
| 20260508050516 | 64 | 135 | 0.0 | 0.0 | 0.00 | 0.00 | 0.00 | 36 | 1010.9 |
| 20260508045516 | 65 | 135 | 0.0 | 0.0 | 0.00 | 0.00 | 0.00 | 30 | 1011.1 |
| 20260508045016 | 65 | 135 | 0.0 | 0.0 | 0.00 | 0.00 | 0.00 | 30 | 1011.1 |
| 20260508044516 | 65 | 135 | 0.0 | 0.0 | 0.00 | 0.00 | 0.00 | 30 | 1011.1 |
| 20260508044017 | 65 | 135 | 0.0 | 0.0 | 0.00 | 0.00 | 0.00 | 30 | 1011.1 |
| 20260508043517 | 65 | 135 | 0.0 | 0.0 | 0.00 | 0.00 | 0.00 | 30 | 1011.3 |
| 20260508043016 | 65 | 135 | 0.0 | 0.0 | 0.00 | 0.00 | 0.00 | 30 | 1011.3 |
| 20260508042516 | 65 | 135 | 0.0 | 0.0 | 0.00 | 0.00 | 0.00 | 30 | 1011.3 |
| 20260508041516 | 65 | 135 | 0.0 | 0.0 | 0.00 | 0.00 | 0.00 | 30 | 1011.2 |
| 20260508041016 | 66 | 135 | 0.0 | 0.0 | 0.00 | 0.00 | 0.00 | 30 | 1011.2 |
| 20260508040516 | 66 | 135 | 0.0 | 0.0 | 0.00 | 0.00 | 0.00 | 30 | 1011.2 |
| 20260508035516 | 66 | 135 | 0.0 | 0.0 | 0.00 | 0.00 | 0.00 | 27 | 1011.1 |
| 20260508035016 | 66 | 135 | 0.0 | 0.0 | 0.00 | 0.00 | 0.00 | 27 | 1011.1 |
| 20260508034516 | 65 | 135 | 0.0 | 0.0 | 0.00 | 0.00 | 0.00 | 27 | 1011.1 |
| 20260508032516 | 66 | 135 | 0.0 | 0.0 | 0.00 | 0.00 | 0.00 | 27 | 1011.0 |
| 20260508032016 | 66 | 135 | 0.0 | 0.0 | 0.00 | 0.00 | 0.00 | 27 | 1011.0 |
| 20260508031016 | 66 | 135 | 0.0 | 0.0 | 0.00 | 0.00 | 0.00 | 27 | 1011.0 |
| 20260508030517 | 66 | 135 | 0.0 | 0.0 | 0.00 | 0.00 | 0.00 | 27 | 1011.0 |
| 20260508030016 | 66 | 135 | 0.0 | 0.0 | 0.00 | 0.00 | 0.00 | 26 | 1011.0 |
| 20260508025516 | 67 | 135 | 0.0 | 0.0 | 0.00 | 0.00 | 0.00 | 26 | 1010.7 |
| 20260508025016 | 67 | 135 | 0.0 | 0.0 | 0.00 | 0.00 | 0.00 | 26 | 1010.7 |
| 20260508024516 | 67 | 135 | 0.0 | 0.0 | 0.00 | 0.00 | 0.00 | 26 | 1010.7 |
| 20260508024016 | 68 | 135 | 0.0 | 0.0 | 0.00 | 0.00 | 0.00 | 26 | 1010.7 |
| 20260508023516 | 69 | 135 | 0.0 | 0.0 | 0.00 | 0.00 | 0.00 | 26 | 1010.7 |
| 20260508023016 | 69 | 135 | 0.0 | 0.0 | 0.00 | 0.00 | 0.00 | 26 | 1010.7 |
| 20260508022516 | 70 | 135 | 0.0 | 0.0 | 0.00 | 0.00 | 0.00 | 26 | 1010.7 |
| 20260508022016 | 70 | 135 | 0.0 | 0.0 | 0.00 | 0.00 | 0.00 | 26 | 1010.7 |
| 20260508021515 | 71 | 135 | 0.0 | 0.0 | 0.00 | 0.00 | 0.00 | 26 | 1010.5 |
| 20260508021016 | 71 | 135 | 0.0 | 0.0 | 0.00 | 0.00 | 0.00 | 26 | 1010.5 |
| 20260508020516 | 71 | 135 | 0.0 | 0.0 | 0.00 | 0.00 | 0.00 | 26 | 1010.5 |
| 20260508015515 | 72 | 135 | 0.0 | 0.0 | 0.00 | 0.00 | 0.00 | 21 | 1010.5 |
| 20260508015016 | 72 | 135 | 0.0 | 0.0 | 0.00 | 0.00 | 0.00 | 21 | 1010.5 |
| 20260508014516 | 72 | 135 | 0.0 | 0.0 | 0.00 | 0.00 | 0.00 | 21 | 1010.5 |
| 20260508014015 | 72 | 135 | 0.0 | 0.0 | 0.00 | 0.00 | 0.00 | 21 | 1010.5 |
| 20260508013516 | 73 | 135 | 0.0 | 0.0 | 0.00 | 0.00 | 0.00 | 21 | 1010.4 |
| 20260508012515 | 73 | 135 | 0.0 | 0.0 | 0.00 | 0.00 | 0.00 | 21 | 1010.4 |
| 20260508012015 | 74 | 135 | 0.0 | 0.0 | 0.00 | 0.00 | 0.00 | 21 | 1010.4 |
| 20260508011515 | 74 | 135 | 0.0 | 0.0 | 0.00 | 0.00 | 0.00 | 21 | 1010.4 |
| 20260508011016 | 75 | 135 | 0.0 | 0.0 | 0.00 | 0.00 | 0.00 | 21 | 1010.4 |
| 20260508010516 | 75 | 135 | 0.0 | 0.0 | 0.00 | 0.00 | 0.00 | 21 | 1010.4 |
| 20260508005515 | 75 | 135 | 0.0 | 0.0 | 0.00 | 0.00 | 0.00 | 23 | 1010.4 |
| 20260508004516 | 75 | 135 | 0.0 | 0.0 | 0.00 | 0.00 | 0.00 | 23 | 1010.4 |
| 20260508003515 | 75 | 135 | 0.0 | 0.0 | 0.00 | 0.00 | 0.00 | 23 | 1010.6 |
| 20260508003015 | 75 | 135 | 0.0 | 0.0 | 0.00 | 0.00 | 0.00 | 23 | 1010.6 |
| 20260508002515 | 75 | 135 | 0.0 | 0.0 | 0.00 | 0.00 | 0.00 | 23 | 1010.6 |
| 20260508002016 | 75 | 135 | 0.0 | 0.0 | 0.00 | 0.00 | 0.00 | 23 | 1010.6 |
| 20260508001515 | 75 | 135 | 0.0 | 0.0 | 0.00 | 0.00 | 0.00 | 23 | 1010.6 |
| 20260508001016 | 75 | 135 | 0.0 | 0.0 | 0.00 | 0.00 | 0.00 | 23 | 1010.6 |
| 20260508000516 | 76 | 135 | 0.0 | 0.0 | 0.00 | 0.00 | 0.00 | 23 | 1010.6 |
| 20260508000016 | 75 | 135 | 0.0 | 0.0 | 0.00 | 0.00 | 0.00 | 24 | 1010.6 |
| 20260507235516 | 75 | 135 | 0.0 | 0.0 | 0.00 | 0.00 | 0.00 | 24 | 1011.1 |
| 20260507234515 | 75 | 135 | 0.0 | 0.0 | 0.00 | 0.00 | 0.00 | 24 | 1011.1 |
| 20260507234016 | 75 | 135 | 0.0 | 0.0 | 0.00 | 0.00 | 0.00 | 24 | 1011.1 |
| 20260507233516 | 74 | 135 | 0.0 | 0.0 | 0.00 | 0.00 | 0.00 | 24 | 1010.9 |
| 20260507233016 | 74 | 135 | 0.0 | 0.0 | 0.00 | 0.00 | 0.00 | 24 | 1010.9 |
| 20260507232516 | 74 | 135 | 0.0 | 0.0 | 0.00 | 0.00 | 0.00 | 24 | 1010.9 |
| 20260507231515 | 74 | 135 | 0.0 | 0.0 | 0.00 | 0.00 | 0.00 | 24 | 1011.4 |
| 20260507231015 | 75 | 135 | 0.0 | 0.0 | 0.00 | 0.00 | 0.00 | 24 | 1011.4 |
| 20260507230516 | 75 | 135 | 0.0 | 0.0 | 0.00 | 0.00 | 0.00 | 24 | 1011.4 |
| 20260507230015 | 74 | 135 | 0.0 | 0.0 | 0.00 | 0.00 | 0.00 | 24 | 1011.4 |
| 20260507224516 | 74 | 135 | 0.0 | 0.0 | 0.00 | 0.00 | 0.00 | 24 | 1011.8 |
| 20260507223515 | 73 | 135 | 0.0 | 0.0 | 0.00 | 0.00 | 0.00 | 24 | 1012.3 |
| 20260507223015 | 72 | 135 | 0.0 | 0.0 | 0.00 | 0.00 | 0.00 | 24 | 1012.3 |
| 20260507222515 | 72 | 135 | 0.0 | 0.0 | 0.00 | 0.00 | 0.00 | 24 | 1012.3 |
| 20260507221515 | 72 | 135 | 0.0 | 0.0 | 0.00 | 0.00 | 0.00 | 24 | 1012.5 |
| 20260507221016 | 72 | 135 | 0.0 | 0.0 | 0.00 | 0.00 | 0.00 | 24 | 1012.5 |
| 20260507220515 | 72 | 135 | 0.0 | 0.0 | 0.00 | 0.00 | 0.00 | 24 | 1012.5 |
| 20260507215016 | 73 | 135 | 0.0 | 0.0 | 0.00 | 0.00 | 0.00 | 21 | 1012.9 |
| 20260507214515 | 74 | 135 | 0.0 | 0.0 | 0.00 | 0.00 | 0.00 | 21 | 1012.9 |
| 20260507214016 | 74 | 135 | 0.0 | 0.0 | 0.00 | 0.00 | 0.00 | 21 | 1012.9 |
| 20260507213515 | 74 | 135 | 0.0 | 0.0 | 0.00 | 0.00 | 0.00 | 21 | 1013.1 |
| 20260507213016 | 73 | 135 | 0.0 | 0.0 | 0.00 | 0.00 | 0.00 | 21 | 1013.1 |
| 20260507212516 | 73 | 135 | 0.0 | 0.0 | 0.00 | 0.00 | 0.00 | 21 | 1013.1 |
| 20260507212015 | 73 | 135 | 0.0 | 0.0 | 0.00 | 0.00 | 0.00 | 21 | 1013.1 |
| 20260507211515 | 73 | 135 | 0.0 | 0.0 | 0.00 | 0.00 | 0.00 | 21 | 1013.3 |
| 20260507211015 | 74 | 135 | 0.0 | 0.0 | 0.00 | 0.00 | 0.00 | 21 | 1013.3 |
| 20260507210516 | 74 | 135 | 0.0 | 0.0 | 0.00 | 0.00 | 0.00 | 21 | 1013.3 |
| 20260507210016 | 74 | 135 | 0.0 | 0.0 | 0.00 | 0.00 | 0.00 | 19 | 1013.3 |
| 20260507205516 | 74 | 135 | 0.0 | 0.0 | 0.00 | 0.00 | 0.00 | 19 | 1013.3 |
| 20260507205016 | 74 | 135 | 0.0 | 0.0 | 0.00 | 0.00 | 0.00 | 19 | 1013.3 |
| 20260507204016 | 74 | 135 | 0.0 | 0.0 | 0.00 | 0.00 | 0.00 | 19 | 1013.3 |